Flag for Austria Weather past 2 weeks in Perg, Upper Austria, Austria

Now
51 °F

Fog.


Feels Like: 48 °F
Forecast: 39 / 60 °F
Wind: 7 mph from West

Location: Amstetten

Current Time: Apr 28, 2015 at 4:37:44 PM

Latest Report: Apr 28, 2015 at 3:00 PM


Visibility: N/A

Pressure: 29.86 "Hg

Humidity: 74%

Dew point: 43 °F

Location of PergLocation

Historic Weather in Perg — Graph

°F

Perg temperature yesterday

Maximum temperature yesterday: 77 °F (at 5:00 PM)
Minimum temperature yesterday: 49 °F (at 6:00 AM)
Average temperature yesterday: 62 °F

Past Weeks' High & Low Weather Summary

 TemperatureHumidityPressure
High77 °F (Apr 27, 5:00 PM)100% (Apr 24, 7:00 AM)30.45 "Hg (Apr 24, 7:00 AM)
Low34 °F (Apr 19, 6:00 AM)24% (Apr 25, 5:00 PM)29.44 "Hg (Apr 27, 6:00 PM)
Average54 °F63%30.05 "Hg
* Reported Apr 13 3:00 PM — Apr 28 3:00 PM, Perg, Weather by CustomWeather, © 2015

Note: Actual official high and low records may vary slightly from our data, if they occured in-between our weather recording intervals... More about our weather records

Advertising

Perg weather history for previous 24 hours

 ConditionsComfort  
Time TempWeatherWind HumidityBarometerVisibility
3:00 PM
Tue, Apr 28
51 °FFog.7 mph74%29.86 "HgN/A
2:00 PM52 °FCool.6 mph82%29.80 "HgN/A
1:00 PM53 °FCool.7 mph87%29.75 "HgN/A
12:00 PM55 °FCool.3 mph82%29.71 "HgN/A
11:00 AM57 °FCool.5 mph78%29.66 "HgN/A
10:00 AM58 °FCool.3 mph77%29.63 "HgN/A
9:00 AM59 °FCool.3 mph68%29.61 "HgN/A
8:00 AM58 °FScattered clouds.2 mph71%29.58 "HgN/A
11:00 PM
Mon, Apr 27
56 °FCool.1 mph66%29.50 "HgN/A
10:00 PM63 °FMild.1 mph50%29.50 "HgN/A
9:00 PM67 °FPassing clouds.29 mph41%29.47 "Hg2 mi
8:00 PM70 °FMild.5 mph36%29.44 "HgN/A
7:00 PM73 °FMild.3 mph36%29.44 "HgN/A
6:00 PM76 °FMild.5 mph33%29.44 "HgN/A
5:00 PM77 °FMild.3 mph38%29.47 "HgN/A
4:00 PM76 °FMild.3 mph42%29.47 "HgN/A
Weather by CustomWeather, © 2015

See weather overviewHow to use our weather pages